Overview Statistics Trail Chart Weather Telemetry Raw packets
 

This is the latest recevied weather packets stored in our database for station/object N0QV. If no packets are shown the sender has not sent any weather packets the latest 10 day(s).

<< 20 21 22 23 24 25 26 >>
Time Temp. Humidity Pressure Rain* Wind** Luminosity Snow
1788529783 27.22° C 78% 1011.3 hPa 0 mm - 162 W/m² -
1788529482 26.67° C 80% 1011.3 hPa 0 mm - 50 W/m² -
1788529177 26.67° C 80% 1011.4 hPa 0 mm - 57 W/m² -
1788528872 26.67° C 79% 1011.6 hPa 0 mm - 154 W/m² -
1788528568 26.11° C 81% 1011.3 hPa 0 mm - 138 W/m² -
1788528263 26.11° C 81% 1011.5 hPa 0 mm - 122 W/m² -
1788527962 25.56° C 83% 1011.4 hPa 0 mm - 113 W/m² -
1788527658 25° C 84% 1011.5 hPa 0 mm - 109 W/m² -
1788527353 25° C 85% 1011.2 hPa 0 mm - 66 W/m² -
1788527052 24.44° C 86% 1011.3 hPa 0 mm - 64 W/m² -
1788526747 23.89° C 89% 1011.3 hPa 0 mm - 57 W/m² -
1788526444 23.33° C 91% 1011.2 hPa 0 mm - 52 W/m² -
1788526143 22.78° C 92% 1011.1 hPa 0 mm - 38 W/m² -
1788525839 22.78° C 93% 1011.2 hPa 0 mm - 29 W/m² -
1788525534 22.22° C 93% 1011 hPa 0 mm - 29 W/m² -
1788525229 22.22° C 93% 1010.9 hPa 0 mm - 25 W/m² -
1788524925 22.22° C 93% 1010.9 hPa 0 mm - 23 W/m² -
1788524624 21.67° C 93% 1010.7 hPa 0 mm - 21 W/m² -
1788524319 21.67° C 94% 1010.8 hPa 0 mm - 17 W/m² -
1788524016 21.67° C 94% 1011.1 hPa 0 mm - 16 W/m² -
1788523712 21.67° C 94% 1010.9 hPa 0 mm - 13 W/m² -
1788523407 21.67° C 94% 1011.2 hPa 0 mm - 10 W/m² -
1788523102 21.67° C 94% 1010.9 hPa 0 mm - 7 W/m² -
1788522798 21.67° C 94% 1010.9 hPa 0 mm - 4 W/m² -
1788522498 21.67° C 94% 1010.9 hPa 0 mm - 2 W/m² -

* Rain latest hour (hover to see other rain measurements)
** Current wind speed in m/s (hover to see current wind gust speed)